FIN31R EGPH-EFHK

Flight info

Callsign FIN31R
Flight time 2h 28m
Altitude 37000
Route GRICE P600 ASNUD DCT ALOTI DCT RIVEX DCT PIPEX DCT VATEX DCT IBVUT Y363 LAKUT
Aircraft A320/M-SDE3FGHIRWY/LB1

Departure

Time 2026-04-23 09:43
Airport Edinburgh Airport (EGPH)

Arrival

Time 2026-04-23 12:11
Airport Helsinki Vantaa Airport (EFHK)
Time Latitude Longitude Altitude Speed Heading
2026-04-23 09:20 55.94836 -3.36641 117 ft 0 kts 89°
2026-04-23 09:32 55.94836 -3.36667 112 ft 4 kts 85°
2026-04-23 09:32 55.94832 -3.36714 113 ft 4 kts 72°
2026-04-23 09:32 55.94821 -3.36756 112 ft 3 kts 47°
2026-04-23 09:33 55.94803 -3.36777 113 ft 2 kts 360°
2026-04-23 09:33 55.94797 -3.36777 113 ft 0 kts 359°
2026-04-23 09:37 55.94801 -3.36777 113 ft 2 kts 359°
2026-04-23 09:37 55.94819 -3.36778 113 ft 3 kts 359°
2026-04-23 09:37 55.94849 -3.36779 115 ft 5 kts 359°
2026-04-23 09:38 55.94891 -3.36798 112 ft 7 kts 334°
2026-04-23 09:38 55.94923 -3.36868 115 ft 8 kts 281°
2026-04-23 09:38 55.94903 -3.36969 115 ft 10 kts 238°
2026-04-23 09:38 55.94864 -3.37080 115 ft 11 kts 238°
2026-04-23 09:39 55.94820 -3.37209 115 ft 13 kts 239°
2026-04-23 09:39 55.94771 -3.37354 112 ft 15 kts 239°
2026-04-23 09:39 55.94716 -3.37516 116 ft 16 kts 239°
2026-04-23 09:39 55.94656 -3.37693 113 ft 17 kts 239°
2026-04-23 09:40 55.94590 -3.37885 115 ft 19 kts 238°
2026-04-23 09:40 55.94520 -3.38092 114 ft 20 kts 242°
2026-04-23 09:40 55.94447 -3.38309 114 ft 21 kts 238°
2026-04-23 09:40 55.94368 -3.38539 114 ft 22 kts 239°
2026-04-23 09:41 55.94294 -3.38759 113 ft 14 kts 239°
2026-04-23 09:41 55.94314 -3.38890 115 ft 12 kts 326°
2026-04-23 09:41 55.94392 -3.38968 114 ft 14 kts 355°
2026-04-23 09:41 55.94441 -3.38896 114 ft 0 kts 59°
2026-04-23 09:42 55.94441 -3.38895 114 ft 2 kts 59°
2026-04-23 09:42 55.94491 -3.38743 112 ft 42 kts 60°
2026-04-23 09:42 55.94780 -3.37895 112 ft 116 kts 59°
2026-04-23 09:43 55.95302 -3.36357 122 ft 170 kts 58°
2026-04-23 09:43 55.95943 -3.34404 454 ft 189 kts 59°
2026-04-23 09:43 55.96722 -3.32415 949 ft 202 kts 44°
2026-04-23 09:43 55.97821 -3.30938 1538 ft 192 kts 31°
2026-04-23 09:44 55.98986 -3.29669 1879 ft 207 kts 35°
2026-04-23 09:44 56.00192 -3.28079 2135 ft 223 kts 30°
2026-04-23 09:44 56.01735 -3.27112 2302 ft 250 kts
2026-04-23 09:44 56.03502 -3.27287 2932 ft 259 kts 345°
2026-04-23 09:45 56.05141 -3.28629 3752 ft 262 kts 323°
2026-04-23 09:45 56.06407 -3.30980 4591 ft 265 kts 302°
2026-04-23 09:45 56.07136 -3.34031 5220 ft 271 kts 285°
2026-04-23 09:45 56.07624 -3.37281 5390 ft 270 kts 284°
2026-04-23 09:46 56.08087 -3.40492 5448 ft 270 kts 284°
2026-04-23 09:46 56.08546 -3.43744 5493 ft 271 kts 284°
2026-04-23 09:46 56.09011 -3.47029 6278 ft 272 kts 284°
2026-04-23 09:46 56.09479 -3.50328 7124 ft 275 kts 284°
2026-04-23 09:47 56.09981 -3.53652 7932 ft 278 kts 290°
2026-04-23 09:47 56.10881 -3.56744 8697 ft 282 kts 300°
2026-04-23 09:47 56.11882 -3.59783 9474 ft 285 kts 300°
2026-04-23 09:47 56.12929 -3.62808 10221 ft 288 kts 307°
2026-04-23 09:48 56.14374 -3.65331 10948 ft 292 kts 325°
2026-04-23 09:48 56.16174 -3.66938 11653 ft 296 kts 343°
2026-04-23 09:48 56.18236 -3.67852 11942 ft 317 kts 352°
2026-04-23 09:48 56.20493 -3.67488 12108 ft 340 kts 18°
2026-04-23 09:49 56.22706 -3.65680 12296 ft 360 kts 30°
2026-04-23 09:49 56.24801 -3.63126 12833 ft 367 kts 37°
2026-04-23 09:49 56.26814 -3.60247 13483 ft 371 kts 39°
2026-04-23 09:49 56.28818 -3.57273 14150 ft 375 kts 39°
2026-04-23 09:50 56.30857 -3.54319 14752 ft 378 kts 38°
2026-04-23 09:50 56.32943 -3.51424 14956 ft 379 kts 37°
2026-04-23 09:50 56.35064 -3.48607 15008 ft 379 kts 36°
2026-04-23 09:50 56.37181 -3.45894 15010 ft 378 kts 34°
2026-04-23 09:51 56.39359 -3.43174 15378 ft 383 kts 34°
2026-04-23 09:51 56.41561 -3.40461 16086 ft 385 kts 34°
2026-04-23 09:51 56.43785 -3.37731 16737 ft 388 kts 34°
2026-04-23 09:51 56.46028 -3.34969 17339 ft 392 kts 34°
2026-04-23 09:52 56.48286 -3.32168 17939 ft 395 kts 34°
2026-04-23 09:52 56.50562 -3.29326 18521 ft 399 kts 34°
2026-04-23 09:52 56.52852 -3.26459 19098 ft 402 kts 34°
2026-04-23 09:52 56.55132 -3.23604 19663 ft 405 kts 34°
2026-04-23 09:53 56.57455 -3.20687 20222 ft 409 kts 34°
2026-04-23 09:53 56.59798 -3.17737 20756 ft 412 kts 34°
2026-04-23 09:53 56.62160 -3.14750 21268 ft 415 kts 34°
2026-04-23 09:53 56.64539 -3.11742 21754 ft 418 kts 34°
2026-04-23 09:54 56.66857 -3.08515 22198 ft 421 kts 42°
2026-04-23 09:54 56.68859 -3.04600 22669 ft 425 kts 52°
2026-04-23 09:54 56.70471 -3.00084 23092 ft 428 kts 62°
2026-04-23 09:54 56.71666 -2.95111 23517 ft 431 kts 69°
2026-04-23 09:55 56.72738 -2.90085 23896 ft 433 kts 69°
2026-04-23 09:55 56.73829 -2.84969 23994 ft 433 kts 69°
2026-04-23 09:55 56.74918 -2.79848 24009 ft 433 kts 69°
2026-04-23 09:55 56.76001 -2.74735 24010 ft 433 kts 69°
2026-04-23 09:56 56.77085 -2.69618 24008 ft 433 kts 69°
2026-04-23 09:56 56.78171 -2.64497 24008 ft 433 kts 69°
2026-04-23 09:56 56.79256 -2.59382 24010 ft 433 kts 69°
2026-04-23 09:56 56.80335 -2.54261 24008 ft 432 kts 69°
2026-04-23 09:57 56.81394 -2.49211 24008 ft 433 kts 69°
2026-04-23 09:57 56.82467 -2.44077 24008 ft 433 kts 69°
2026-04-23 09:57 56.83536 -2.38937 24008 ft 433 kts 69°
2026-04-23 09:57 56.84604 -2.33790 24024 ft 434 kts 69°
2026-04-23 09:58 56.85679 -2.28617 24452 ft 436 kts 69°
2026-04-23 09:58 56.86759 -2.23418 24884 ft 439 kts 69°
2026-04-23 09:58 56.87844 -2.18187 25301 ft 441 kts 69°
2026-04-23 09:58 56.88931 -2.12920 25698 ft 444 kts 69°
2026-04-23 09:59 56.90020 -2.07618 26084 ft 446 kts 69°
2026-04-23 09:59 56.91096 -2.02358 26452 ft 449 kts 69°
2026-04-23 09:59 56.92190 -1.96991 26813 ft 451 kts 69°
2026-04-23 09:59 56.93287 -1.91595 27163 ft 454 kts 69°
2026-04-23 10:00 56.94391 -1.86166 27502 ft 456 kts 69°
2026-04-23 10:00 56.95498 -1.80712 27839 ft 458 kts 69°
2026-04-23 10:00 56.96609 -1.75217 28177 ft 461 kts 70°
2026-04-23 10:00 56.97722 -1.69696 28509 ft 463 kts 70°
2026-04-23 10:01 56.98837 -1.64137 28846 ft 465 kts 70°
2026-04-23 10:01 56.99943 -1.58636 29159 ft 467 kts 70°
2026-04-23 10:01 57.01073 -1.53027 29455 ft 470 kts 70°
2026-04-23 10:01 57.02199 -1.47394 29789 ft 470 kts 70°
2026-04-23 10:02 57.03316 -1.41759 30209 ft 469 kts 70°
2026-04-23 10:02 57.04428 -1.36138 30603 ft 468 kts 70°
2026-04-23 10:02 57.05535 -1.30526 30996 ft 467 kts 70°
2026-04-23 10:02 57.06635 -1.24920 31377 ft 466 kts 70°
2026-04-23 10:03 57.07734 -1.19320 31748 ft 466 kts 70°
2026-04-23 10:03 57.08815 -1.13796 32120 ft 465 kts 70°
2026-04-23 10:03 57.09905 -1.08206 32483 ft 464 kts 70°
2026-04-23 10:03 57.10993 -1.02623 32822 ft 463 kts 70°
2026-04-23 10:04 57.12075 -0.97051 33175 ft 463 kts 70°
2026-04-23 10:04 57.13155 -0.91477 33502 ft 462 kts 70°
2026-04-23 10:04 57.14233 -0.85909 33833 ft 461 kts 70°
2026-04-23 10:04 57.15308 -0.80346 34158 ft 461 kts 70°
2026-04-23 10:05 57.16380 -0.74786 34477 ft 460 kts 70°
2026-04-23 10:05 57.17430 -0.69314 34784 ft 459 kts 70°
2026-04-23 10:05 57.18494 -0.63763 35088 ft 459 kts 70°
2026-04-23 10:05 57.19549 -0.58219 35394 ft 458 kts 71°
2026-04-23 10:06 57.20595 -0.52671 35694 ft 457 kts 71°
2026-04-23 10:06 57.21638 -0.47127 35948 ft 458 kts 71°
2026-04-23 10:06 57.22683 -0.41583 36009 ft 457 kts 71°
2026-04-23 10:07 57.24771 -0.30499 36007 ft 457 kts 71°
2026-04-23 10:07 57.26829 -0.19478 36008 ft 457 kts 71°
2026-04-23 10:08 57.28895 -0.08385 36010 ft 457 kts 71°
2026-04-23 10:08 57.30943 0.02723 36009 ft 456 kts 71°
2026-04-23 10:09 57.32643 0.11989 36631 ft 459 kts 75°
2026-04-23 10:09 57.33998 0.19400 36563 ft 459 kts 75°
2026-04-23 10:09 57.36036 0.30624 36554 ft 460 kts 75°
2026-04-23 10:10 57.38063 0.41869 36564 ft 460 kts 76°
2026-04-23 10:10 57.39745 0.51216 36558 ft 460 kts 75°
2026-04-23 10:11 57.41767 0.62464 36560 ft 460 kts 76°
2026-04-23 10:11 57.44095 0.75544 36556 ft 459 kts 76°
2026-04-23 10:12 57.45762 0.84997 36557 ft 459 kts 76°
2026-04-23 10:12 57.47728 0.96196 36549 ft 459 kts 76°
2026-04-23 10:13 57.49697 1.07475 36551 ft 459 kts 76°
2026-04-23 10:13 57.51656 1.18764 36546 ft 458 kts 76°
2026-04-23 10:14 57.53602 1.30058 36550 ft 458 kts 76°
2026-04-23 10:14 57.55520 1.41280 36541 ft 458 kts 76°
2026-04-23 10:15 57.57442 1.52592 36549 ft 458 kts 76°
2026-04-23 10:15 57.59356 1.63898 36538 ft 457 kts 76°
2026-04-23 10:16 57.61260 1.75202 36539 ft 457 kts 76°
2026-04-23 10:16 57.63136 1.86427 36532 ft 456 kts 76°
2026-04-23 10:17 57.65014 1.97739 36538 ft 456 kts 76°
2026-04-23 10:17 57.66874 2.09055 36528 ft 455 kts 76°
2026-04-23 10:18 57.68728 2.20369 36524 ft 455 kts 76°
2026-04-23 10:18 57.70557 2.31593 36516 ft 454 kts 76°
2026-04-23 10:19 57.72386 2.42902 36518 ft 454 kts 76°
2026-04-23 10:19 57.74204 2.54201 36506 ft 453 kts 77°
2026-04-23 10:20 57.76004 2.65505 36813 ft 452 kts 77°
2026-04-23 10:20 57.77190 2.72970 37250 ft 451 kts 77°
2026-04-23 10:20 57.77793 2.76780 37365 ft 452 kts 77°
2026-04-23 10:21 57.79560 2.87995 37404 ft 451 kts 77°
2026-04-23 10:21 57.81319 2.99272 37414 ft 450 kts 77°
2026-04-23 10:22 57.83077 3.10539 37400 ft 450 kts 77°
2026-04-23 10:22 57.84823 3.21803 37400 ft 449 kts 77°
2026-04-23 10:23 57.86537 3.32984 37398 ft 449 kts 77°
2026-04-23 10:23 57.88248 3.44235 37392 ft 448 kts 77°
2026-04-23 10:24 57.89948 3.55494 37392 ft 447 kts 77°
2026-04-23 10:24 57.91706 3.66709 37385 ft 447 kts 75°
2026-04-23 10:25 57.93767 3.77679 37385 ft 448 kts 72°
2026-04-23 10:25 57.95932 3.88667 37375 ft 447 kts 73°
2026-04-23 10:26 57.98019 3.99685 37377 ft 446 kts 73°
2026-04-23 10:26 58.00031 4.10725 37440 ft 445 kts 74°
2026-04-23 10:27 58.02010 4.21676 37469 ft 443 kts 74°
2026-04-23 10:27 58.03995 4.32659 37458 ft 442 kts 74°
2026-04-23 10:28 58.05972 4.43624 37462 ft 441 kts 74°
2026-04-23 10:28 58.07933 4.54577 37451 ft 440 kts 75°
2026-04-23 10:29 58.09870 4.65442 37456 ft 439 kts 74°
2026-04-23 10:29 58.11808 4.76403 37454 ft 439 kts 74°
2026-04-23 10:30 58.13734 4.87365 37462 ft 439 kts 75°
2026-04-23 10:30 58.15660 4.98325 37454 ft 438 kts 74°
2026-04-23 10:31 58.17572 5.09281 37458 ft 437 kts 75°
2026-04-23 10:31 58.19465 5.20216 37449 ft 436 kts 75°
2026-04-23 10:32 58.21347 5.31138 37447 ft 435 kts 75°
2026-04-23 10:32 58.23210 5.42056 37435 ft 434 kts 75°
2026-04-23 10:33 58.25065 5.52943 37437 ft 433 kts 75°
2026-04-23 10:33 58.26904 5.63825 37420 ft 432 kts 75°
2026-04-23 10:34 58.28710 5.74629 37419 ft 431 kts 75°
2026-04-23 10:34 58.30519 5.85497 37403 ft 431 kts 75°
2026-04-23 10:35 58.32323 5.96351 37395 ft 430 kts 75°
2026-04-23 10:35 58.34115 6.07205 37381 ft 430 kts 75°
2026-04-23 10:36 58.35894 6.18068 37375 ft 429 kts 75°
2026-04-23 10:36 58.37663 6.28926 37358 ft 429 kts 75°
2026-04-23 10:37 58.39418 6.39788 37352 ft 428 kts 75°
2026-04-23 10:37 58.41151 6.50652 37339 ft 428 kts 75°
2026-04-23 10:38 58.42970 6.61464 37332 ft 428 kts 72°
2026-04-23 10:38 58.44976 6.72148 37325 ft 427 kts 71°
2026-04-23 10:39 58.46990 6.82819 37321 ft 427 kts 72°
2026-04-23 10:39 58.48937 6.93513 37307 ft 426 kts 72°
2026-04-23 10:40 58.50841 7.04222 37308 ft 425 kts 73°
2026-04-23 10:40 58.52729 7.14910 37302 ft 424 kts 72°
2026-04-23 10:41 58.54621 7.25582 37294 ft 423 kts 72°
2026-04-23 10:41 58.56507 7.36241 37288 ft 422 kts 72°
2026-04-23 10:42 58.58384 7.46885 37285 ft 421 kts 72°
2026-04-23 10:42 58.60241 7.57526 37276 ft 420 kts 72°
2026-04-23 10:43 58.62083 7.68162 37273 ft 420 kts 73°
2026-04-23 10:43 58.63910 7.78784 37261 ft 419 kts 73°
2026-04-23 10:44 58.65741 7.89460 37259 ft 418 kts 73°
2026-04-23 10:44 58.67536 7.99986 37254 ft 417 kts 73°
2026-04-23 10:45 58.69332 8.10586 37257 ft 416 kts 73°
2026-04-23 10:45 58.71114 8.21169 37250 ft 416 kts 73°
2026-04-23 10:46 58.72885 8.31759 37257 ft 416 kts 73°
2026-04-23 10:46 58.74648 8.42352 37247 ft 415 kts 73°
2026-04-23 10:47 58.76405 8.52941 37257 ft 415 kts 73°
2026-04-23 10:47 58.78148 8.63545 37246 ft 415 kts 73°
2026-04-23 10:48 58.79866 8.74136 37249 ft 414 kts 73°
2026-04-23 10:48 58.81583 8.84730 37253 ft 413 kts 73°
2026-04-23 10:49 58.83299 8.95305 37255 ft 413 kts 73°
2026-04-23 10:49 58.84996 9.05899 37253 ft 413 kts 73°
2026-04-23 10:50 58.86839 9.16385 37262 ft 412 kts 71°
2026-04-23 10:50 58.88788 9.26806 37263 ft 412 kts 71°
2026-04-23 10:51 58.90706 9.37230 37269 ft 411 kts 71°
2026-04-23 10:51 58.92575 9.47682 37269 ft 411 kts 71°
2026-04-23 10:52 58.94427 9.58139 37275 ft 410 kts 71°
2026-04-23 10:52 58.96275 9.68580 37269 ft 409 kts 71°
2026-04-23 10:53 58.98111 9.79018 37269 ft 409 kts 71°
2026-04-23 10:53 58.99933 9.89473 37262 ft 409 kts 71°
2026-04-23 10:54 59.01750 9.99930 37264 ft 409 kts 71°
2026-04-23 10:54 59.03561 10.10377 37254 ft 408 kts 72°
2026-04-23 10:55 59.05361 10.20826 37256 ft 408 kts 72°
2026-04-23 10:55 59.07144 10.31284 37249 ft 407 kts 72°
2026-04-23 10:56 59.08921 10.41737 37254 ft 407 kts 72°
2026-04-23 10:56 59.10687 10.52185 37252 ft 406 kts 72°
2026-04-23 10:57 59.12427 10.62563 37472 ft 406 kts 72°
2026-04-23 10:57 59.14172 10.73013 37504 ft 406 kts 72°
2026-04-23 10:58 59.15907 10.83469 37526 ft 405 kts 72°
2026-04-23 10:58 59.17630 10.93927 37525 ft 405 kts 72°
2026-04-23 10:59 59.19343 11.04391 37498 ft 405 kts 72°
2026-04-23 10:59 59.21054 11.14859 37450 ft 405 kts 72°
2026-04-23 11:00 59.22751 11.25339 37394 ft 404 kts 72°
2026-04-23 11:00 59.24426 11.35776 37310 ft 402 kts 72°
2026-04-23 11:01 59.26095 11.46191 37253 ft 402 kts 72°
2026-04-23 11:01 59.27756 11.56636 37227 ft 402 kts 72°
2026-04-23 11:02 59.29400 11.67030 37207 ft 403 kts 72°
2026-04-23 11:02 59.31048 11.77516 37218 ft 404 kts 72°
2026-04-23 11:03 59.32683 11.88051 37216 ft 405 kts 72°
2026-04-23 11:03 59.34266 11.98637 37218 ft 405 kts 73°
2026-04-23 11:04 59.35822 12.09269 37219 ft 406 kts 73°
2026-04-23 11:04 59.37378 12.19924 37222 ft 407 kts 73°
2026-04-23 11:05 59.38939 12.30595 37211 ft 407 kts 73°
2026-04-23 11:05 59.40232 12.39495 37215 ft 408 kts 73°
2026-04-23 11:06 59.42550 12.55577 37212 ft 408 kts 73°
2026-04-23 11:07 59.44092 12.66326 37212 ft 409 kts 73°
2026-04-23 11:07 59.45625 12.77092 37205 ft 409 kts 73°
2026-04-23 11:08 59.47147 12.87887 37200 ft 410 kts 73°
2026-04-23 11:08 59.48658 12.98695 37192 ft 410 kts 73°
2026-04-23 11:09 59.50165 13.09529 37192 ft 411 kts 73°
2026-04-23 11:09 59.51667 13.20384 37185 ft 411 kts 73°
2026-04-23 11:10 59.53157 13.31261 37189 ft 411 kts 73°
2026-04-23 11:10 59.54641 13.42151 37182 ft 412 kts 73°
2026-04-23 11:11 59.56118 13.53066 37189 ft 412 kts 73°
2026-04-23 11:11 59.57584 13.64009 37189 ft 413 kts 73°
2026-04-23 11:12 59.59046 13.74968 37191 ft 413 kts 72°
2026-04-23 11:12 59.60505 13.85946 37185 ft 413 kts 72°
2026-04-23 11:13 59.61952 13.96939 37190 ft 414 kts 72°
2026-04-23 11:13 59.63390 14.07964 37183 ft 414 kts 72°
2026-04-23 11:14 59.64825 14.19003 37184 ft 415 kts 72°
2026-04-23 11:14 59.66250 14.30059 37176 ft 415 kts 72°
2026-04-23 11:15 59.67660 14.41140 37179 ft 416 kts 72°
2026-04-23 11:15 59.69066 14.52255 37177 ft 416 kts 72°
2026-04-23 11:16 59.70469 14.63386 37175 ft 416 kts 72°
2026-04-23 11:16 59.71852 14.74453 37169 ft 417 kts 72°
2026-04-23 11:17 59.73235 14.85620 37153 ft 417 kts 72°
2026-04-23 11:17 59.74612 14.96799 37160 ft 418 kts 72°
2026-04-23 11:18 59.75976 15.08008 37156 ft 418 kts 72°
2026-04-23 11:18 59.77334 15.19240 37159 ft 419 kts 72°
2026-04-23 11:19 59.78689 15.30500 37167 ft 419 kts 72°
2026-04-23 11:19 59.80032 15.41772 37152 ft 420 kts 72°
2026-04-23 11:20 59.81371 15.53075 37149 ft 420 kts 72°
2026-04-23 11:20 59.82703 15.64378 37155 ft 420 kts 72°
2026-04-23 11:21 59.84019 15.75703 37154 ft 421 kts 72°
2026-04-23 11:21 59.85320 15.87044 37155 ft 421 kts 72°
2026-04-23 11:22 59.86616 15.98419 37157 ft 422 kts 72°
2026-04-23 11:22 59.87910 16.09803 37151 ft 422 kts 72°
2026-04-23 11:23 59.89186 16.21140 37150 ft 422 kts 72°
2026-04-23 11:23 59.90459 16.32560 37153 ft 423 kts 72°
2026-04-23 11:24 59.91727 16.43996 37147 ft 423 kts 72°
2026-04-23 11:24 59.92985 16.55478 37149 ft 424 kts 72°
2026-04-23 11:25 59.94229 16.66966 37147 ft 424 kts 72°
2026-04-23 11:25 59.95472 16.78473 37144 ft 424 kts 72°
2026-04-23 11:26 59.96708 16.90004 37142 ft 425 kts 72°
2026-04-23 11:26 59.97928 17.01543 37139 ft 425 kts 72°
2026-04-23 11:27 59.99133 17.13030 37139 ft 426 kts 72°
2026-04-23 11:27 60.00333 17.24610 37133 ft 426 kts 72°
2026-04-23 11:28 60.01530 17.36215 37134 ft 427 kts 72°
2026-04-23 11:28 60.02722 17.47843 37131 ft 427 kts 72°
2026-04-23 11:29 60.03899 17.59507 37132 ft 428 kts 72°
2026-04-23 11:29 60.05066 17.71179 37130 ft 428 kts 72°
2026-04-23 11:30 60.06228 17.82877 37131 ft 428 kts 72°
2026-04-23 11:30 60.07381 17.94592 37132 ft 429 kts 72°
2026-04-23 11:31 60.08523 18.06312 37125 ft 429 kts 72°
2026-04-23 11:31 60.09647 18.17987 37125 ft 430 kts 72°
2026-04-23 11:32 60.10768 18.29761 37124 ft 430 kts 72°
2026-04-23 11:32 60.11879 18.41544 37122 ft 430 kts 72°
2026-04-23 11:33 60.12991 18.53353 37124 ft 431 kts 72°
2026-04-23 11:33 60.14081 18.65179 37120 ft 431 kts 72°
2026-04-23 11:34 60.15161 18.77029 37122 ft 432 kts 72°
2026-04-23 11:34 60.16234 18.88879 37118 ft 432 kts 72°
2026-04-23 11:35 60.17304 19.00748 37111 ft 432 kts 72°
2026-04-23 11:35 60.18361 19.12644 37111 ft 432 kts 72°
2026-04-23 11:36 60.19391 19.24469 37107 ft 433 kts 72°
2026-04-23 11:36 60.20422 19.36400 37101 ft 433 kts 72°
2026-04-23 11:37 60.21453 19.48339 37097 ft 433 kts 72°
2026-04-23 11:37 60.22474 19.60283 37093 ft 434 kts 72°
2026-04-23 11:38 60.23482 19.72267 37088 ft 434 kts 72°
2026-04-23 11:38 60.24475 19.84264 37092 ft 435 kts 72°
2026-04-23 11:39 60.25461 19.96283 37079 ft 435 kts 72°
2026-04-23 11:39 60.26435 20.08324 37087 ft 436 kts 72°
2026-04-23 11:40 60.27405 20.20381 37083 ft 436 kts 72°
2026-04-23 11:40 60.28353 20.32375 37076 ft 437 kts 72°
2026-04-23 11:41 60.29299 20.44470 37082 ft 437 kts 72°
2026-04-23 11:41 60.30242 20.56607 37069 ft 442 kts 71°
2026-04-23 11:42 60.31198 20.68990 37054 ft 450 kts 71°
2026-04-23 11:42 60.32136 20.81503 37060 ft 451 kts 71°
2026-04-23 11:43 60.33058 20.94031 37055 ft 452 kts 72°
2026-04-23 11:43 60.33976 21.06569 37010 ft 452 kts 72°
2026-04-23 11:43 60.34436 21.12852 36747 ft 452 kts 71°
2026-04-23 11:44 60.34891 21.19134 36482 ft 452 kts 71°
2026-04-23 11:44 60.35336 21.25339 35940 ft 453 kts 71°
2026-04-23 11:44 60.35784 21.31641 35310 ft 454 kts 71°
2026-04-23 11:44 60.36200 21.38009 34668 ft 458 kts 72°
2026-04-23 11:45 60.36523 21.44443 34004 ft 463 kts 74°
2026-04-23 11:45 60.36774 21.50960 33235 ft 467 kts 75°
2026-04-23 11:45 60.36987 21.57534 32444 ft 470 kts 76°
2026-04-23 11:45 60.37191 21.64153 31648 ft 473 kts 76°
2026-04-23 11:46 60.37405 21.70794 30843 ft 476 kts 76°
2026-04-23 11:46 60.37638 21.77485 30028 ft 478 kts 76°
2026-04-23 11:46 60.37886 21.84199 29090 ft 480 kts 76°
2026-04-23 11:46 60.38138 21.90933 28198 ft 481 kts 76°
2026-04-23 11:47 60.38388 21.97665 27308 ft 481 kts 77°
2026-04-23 11:47 60.38629 22.04319 26411 ft 481 kts 77°
2026-04-23 11:47 60.38866 22.11059 25619 ft 479 kts 77°
2026-04-23 11:47 60.39089 22.17742 25004 ft 473 kts 77°
2026-04-23 11:48 60.39302 22.24324 24357 ft 467 kts 77°
2026-04-23 11:48 60.39511 22.30846 23692 ft 462 kts 78°
2026-04-23 11:48 60.39718 22.37290 22958 ft 457 kts 77°
2026-04-23 11:48 60.39924 22.43672 22302 ft 452 kts 77°
2026-04-23 11:49 60.40129 22.50013 22071 ft 452 kts 77°
2026-04-23 11:49 60.40331 22.56343 22087 ft 451 kts 77°
2026-04-23 11:49 60.40534 22.62689 22087 ft 452 kts 77°
2026-04-23 11:49 60.40733 22.69033 22089 ft 452 kts 78°
2026-04-23 11:50 60.40929 22.75387 22089 ft 452 kts 78°
2026-04-23 11:50 60.41120 22.81732 22093 ft 452 kts 78°
2026-04-23 11:50 60.41307 22.88089 22092 ft 452 kts 78°
2026-04-23 11:50 60.41489 22.94449 22092 ft 452 kts 78°
2026-04-23 11:51 60.41668 23.00801 22087 ft 452 kts 78°
2026-04-23 11:51 60.41846 23.07154 22095 ft 453 kts 78°
2026-04-23 11:51 60.42019 23.13529 22088 ft 453 kts 78°
2026-04-23 11:51 60.42187 23.19892 22087 ft 453 kts 78°
2026-04-23 11:52 60.42354 23.26253 22087 ft 453 kts 78°
2026-04-23 11:52 60.42521 23.32618 22083 ft 453 kts 78°
2026-04-23 11:52 60.42683 23.38978 22083 ft 453 kts 78°
2026-04-23 11:52 60.42840 23.45353 22077 ft 453 kts 78°
2026-04-23 11:53 60.42994 23.51713 22078 ft 453 kts 78°
2026-04-23 11:53 60.43146 23.58087 22077 ft 453 kts 78°
2026-04-23 11:53 60.43296 23.64443 22076 ft 451 kts 78°
2026-04-23 11:53 60.43432 23.70654 22075 ft 431 kts 78°
2026-04-23 11:54 60.43546 23.76576 22075 ft 412 kts 77°
2026-04-23 11:54 60.43651 23.82187 22062 ft 395 kts 77°
2026-04-23 11:54 60.43762 23.87706 22065 ft 378 kts 76°
2026-04-23 11:54 60.43946 23.92808 22066 ft 359 kts 72°
2026-04-23 11:55 60.44217 23.97765 22066 ft 351 kts 71°
2026-04-23 11:55 60.44540 24.02636 22062 ft 348 kts 70°
2026-04-23 11:55 60.44643 24.07621 22063 ft 359 kts 79°
2026-04-23 11:55 60.44571 24.12686 22054 ft 360 kts 81°
2026-04-23 11:56 60.44453 24.17770 21671 ft 363 kts 82°
2026-04-23 11:56 60.44300 24.22866 21227 ft 362 kts 82°
2026-04-23 11:56 60.44132 24.27932 20812 ft 359 kts 83°
2026-04-23 11:56 60.43960 24.32950 20404 ft 356 kts 83°
2026-04-23 11:57 60.43789 24.37941 19999 ft 353 kts 83°
2026-04-23 11:57 60.43628 24.42812 19613 ft 350 kts 83°
2026-04-23 11:57 60.43243 24.47718 19224 ft 362 kts 98°
2026-04-23 11:57 60.42072 24.52374 18513 ft 388 kts 121°
2026-04-23 11:58 60.40052 24.56305 17415 ft 413 kts 135°
2026-04-23 11:58 60.37798 24.60073 16243 ft 429 kts 136°
2026-04-23 11:58 60.35248 24.63432 15036 ft 450 kts 154°
2026-04-23 11:58 60.32164 24.64916 13853 ft 465 kts 177°
2026-04-23 11:59 60.28960 24.64117 12618 ft 467 kts 201°
2026-04-23 11:59 60.26023 24.61626 12275 ft 448 kts 207°
2026-04-23 11:59 60.23389 24.58505 11645 ft 432 kts 225°
2026-04-23 11:59 60.21558 24.53952 11010 ft 410 kts 248°
2026-04-23 12:00 60.20373 24.48826 10405 ft 401 kts 251°
2026-04-23 12:00 60.19233 24.43756 9781 ft 394 kts 250°
2026-04-23 12:00 60.18461 24.40464 9331 ft 392 kts 249°
2026-04-23 12:00 60.17325 24.35547 8659 ft 385 kts 250°
2026-04-23 12:01 60.15533 24.29468 7796 ft 386 kts 229°
2026-04-23 12:01 60.13341 24.26402 7161 ft 386 kts 204°
2026-04-23 12:01 60.10748 24.25274 6535 ft 382 kts 180°
2026-04-23 12:01 60.08983 24.25656 6095 ft 375 kts 164°
2026-04-23 12:02 60.06069 24.28657 5222 ft 344 kts 136°
2026-04-23 12:02 60.05017 24.30938 4790 ft 330 kts 123°
2026-04-23 12:02 60.04035 24.34890 4386 ft 304 kts 103°
2026-04-23 12:02 60.03725 24.38858 4313 ft 282 kts 86°
2026-04-23 12:03 60.03958 24.42683 4316 ft 270 kts 70°
2026-04-23 12:03 60.04625 24.45951 4315 ft 240 kts 55°
2026-04-23 12:03 60.05553 24.48480 4311 ft 215 kts 42°
2026-04-23 12:03 60.06679 24.50414 4335 ft 213 kts 30°
2026-04-23 12:04 60.07981 24.51813 4309 ft 211 kts 19°
2026-04-23 12:04 60.09382 24.52619 4308 ft 209 kts
2026-04-23 12:04 60.10831 24.52820 4308 ft 209 kts 357°
2026-04-23 12:04 60.12266 24.52671 4174 ft 209 kts
2026-04-23 12:05 60.13685 24.53292 4038 ft 211 kts 19°
2026-04-23 12:05 60.14948 24.54809 3907 ft 214 kts 37°
2026-04-23 12:05 60.15986 24.56980 3764 ft 216 kts 43°
2026-04-23 12:05 60.16994 24.59202 3636 ft 215 kts 43°
2026-04-23 12:06 60.18007 24.61405 3505 ft 215 kts 43°
2026-04-23 12:06 60.19023 24.63609 3360 ft 213 kts 43°
2026-04-23 12:06 60.20820 24.67525 3173 ft 167 kts 41°
2026-04-23 12:07 60.21563 24.69140 3021 ft 150 kts 41°
2026-04-23 12:07 60.22257 24.70646 2861 ft 145 kts 41°
2026-04-23 12:07 60.22933 24.72114 2637 ft 141 kts 41°
2026-04-23 12:07 60.23599 24.73562 2469 ft 141 kts 40°
2026-04-23 12:08 60.24266 24.75014 2297 ft 141 kts 40°
2026-04-23 12:08 60.24929 24.76458 2079 ft 140 kts 41°
2026-04-23 12:08 60.25580 24.77881 1868 ft 133 kts 41°
2026-04-23 12:08 60.26177 24.79187 1698 ft 126 kts 40°
2026-04-23 12:09 60.26773 24.80487 1515 ft 125 kts 40°
2026-04-23 12:09 60.27357 24.81761 1337 ft 124 kts 39°
2026-04-23 12:09 60.27930 24.83055 1113 ft 123 kts 41°
2026-04-23 12:09 60.28497 24.84342 898 ft 123 kts 40°
2026-04-23 12:10 60.29090 24.85584 704 ft 124 kts 37°
2026-04-23 12:10 60.29685 24.86850 591 ft 127 kts 40°
2026-04-23 12:10 60.30302 24.88215 471 ft 134 kts 41°
2026-04-23 12:10 60.30944 24.89641 268 ft 140 kts 40°
2026-04-23 12:11 60.31576 24.91043 153 ft 126 kts 40°
2026-04-23 12:11 60.32012 24.91957 152 ft 64 kts 47°
2026-04-23 12:11 60.32272 24.92529 168 ft 54 kts 46°
2026-04-23 12:11 60.32364 24.92805 172 ft 17 kts 66°
2026-04-23 12:12 60.32330 24.93007 171 ft 3 kts 138°
2026-04-23 12:12 60.32279 24.93100 169 ft 17 kts 137°
2026-04-23 12:12 60.32242 24.93253 168 ft 15 kts 75°
2026-04-23 12:12 60.32325 24.93448 171 ft 23 kts 47°
2026-04-23 12:13 60.32452 24.93735 171 ft 31 kts 49°
2026-04-23 12:13 60.32542 24.93931 170 ft 16 kts 47°
2026-04-23 12:13 60.32622 24.94108 171 ft 18 kts 47°
2026-04-23 12:13 60.32684 24.94243 172 ft 10 kts 47°
2026-04-23 12:14 60.32714 24.94309 173 ft 6 kts 47°
2026-04-23 12:14 60.32751 24.94389 173 ft 9 kts 47°
2026-04-23 12:14 60.32800 24.94493 174 ft 10 kts 47°
2026-04-23 12:14 60.32855 24.94614 174 ft 13 kts 47°
2026-04-23 12:15 60.32882 24.94674 175 ft 0 kts 47°
2026-04-23 12:15 60.32907 24.94728 175 ft 11 kts 47°
2026-04-23 12:15 60.32963 24.94870 177 ft 18 kts 40°
2026-04-23 12:16 60.32997 24.95047 176 ft 10 kts 121°
2026-04-23 12:16 60.32977 24.95192 175 ft 17 kts 120°
2026-04-23 12:16 60.32899 24.95344 178 ft 14 kts 136°
2026-04-23 12:16 60.32883 24.95382 179 ft 2 kts 103°
2026-04-23 12:17 60.32915 24.95472 178 ft 14 kts 46°
2026-04-23 12:17 60.33004 24.95666 181 ft 19 kts 47°
2026-04-23 12:17 60.33023 24.95813 181 ft 11 kts 131°
2026-04-23 12:17 60.32923 24.95939 176 ft 16 kts 147°
2026-04-23 12:18 60.32813 24.96073 174 ft 18 kts 150°
2026-04-23 12:18 60.32756 24.96140 173 ft 13 kts 149°
2026-04-23 12:18 60.32642 24.96274 172 ft 25 kts 149°
2026-04-23 12:18 60.32514 24.96422 174 ft 16 kts 149°
2026-04-23 12:19 60.32407 24.96547 175 ft 19 kts 152°
2026-04-23 12:19 60.32297 24.96673 168 ft 16 kts 150°
2026-04-23 12:19 60.32220 24.96596 168 ft 12 kts 226°
2026-04-23 12:19 60.32152 24.96466 168 ft 13 kts 206°
2026-04-23 12:20 60.32108 24.96487 168 ft 6 kts 165°
2026-04-23 12:20 60.32041 24.96413 167 ft 17 kts 229°
2026-04-23 12:20 60.31941 24.96191 167 ft 18 kts 227°
2026-04-23 12:20 60.31846 24.96128 167 ft 17 kts 189°
2026-04-23 12:21 60.31771 24.95997 167 ft 7 kts 228°
2026-04-23 12:21 60.31753 24.95957 167 ft 2 kts 228°
2026-04-23 12:21 60.31717 24.95942 167 ft 6 kts 139°
2026-04-23 12:21 60.31694 24.95988 167 ft 1 kts 136°
2026-04-23 12:22 60.31690 24.95995 167 ft 3 kts 136°
2026-04-23 12:22 60.31673 24.96026 167 ft 3 kts 137°
2026-04-23 12:22 60.31672 24.96029 167 ft 0 kts 137°